Zurück zum Katalog

IRIDIUM 33 DEB

LostPO
NORAD 36497·DEBRIS·🇺🇸 United States

Gestartet Sep 14, 1997 von Baikonur Cosmodrome

Loading…

Nächste Überflüge (nächste 24 Stunden)

TLE

VeraltetSource: Space-Track

Epoche: Aug 12, 2026, 01:17 UTC

1 36497U 97051WP  26224.05382095  .00003967  00000-0  69384-3 0  9997
2 36497  86.1561 140.4575 0046925  16.4903 343.7824 14.66910423692007

Verfolge IRIDIUM 33 DEB in Echtzeit mit AllMySat

Download on the App Store